This is the latest recevied weather packets stored in our database for station/object KA8DUX-2. If no packets are shown the sender has not sent any weather packets the latest 10 day(s).
| Time | Temp. | Humidity | Pressure | Rain* | Wind** | Luminosity | Snow |
|---|---|---|---|---|---|---|---|
| 1778176598 | 13.33° C | 40% | 1011.5 hPa | 0 mm | - | 675 W/m² | - |
| 1778176296 | 12.78° C | 42% | 1011.7 hPa | 0 mm | - | 587 W/m² | - |
| 1778175992 | 13.33° C | 40% | 1011.9 hPa | 0 mm | - | 455 W/m² | - |
| 1778175691 | 12.22° C | 40% | 1011.9 hPa | 0 mm | - | 734 W/m² | - |
| 1778175387 | 12.78° C | 41% | 1012 hPa | 0 mm | - | 762 W/m² | - |
| 1778175084 | 12.22° C | 42% | 1011.9 hPa | 0 mm | - | 321 W/m² | - |
| 1778174780 | 12.22° C | 42% | 1012.4 hPa | 0 mm | - | 279 W/m² | - |
| 1778174478 | 12.22° C | 43% | 1012.2 hPa | 0 mm | - | 719 W/m² | - |
| 1778174172 | 12.22° C | 43% | 1012.3 hPa | 0 mm | - | 716 W/m² | - |
| 1778173870 | 11.11° C | 43% | 1012.2 hPa | 0 mm | - | 623 W/m² | - |
| 1778173567 | 10.56° C | 45% | 1012.5 hPa | 0 mm | - | 560 W/m² | - |
| 1778173264 | 11.67° C | 43% | 1012.6 hPa | 0 mm | - | 323 W/m² | - |
| 1778172959 | 12.22° C | 42% | 1012.5 hPa | 0 mm | - | 669 W/m² | - |
| 1778172656 | 11.67° C | 43% | 1012.9 hPa | 0 mm | - | 682 W/m² | - |
| 1778172352 | 11.11° C | 43% | 1012.8 hPa | 0 mm | - | 694 W/m² | - |
| 1778172049 | 11.11° C | 45% | 1012.9 hPa | 0 mm | - | 639 W/m² | - |
| 1778171747 | 11.67° C | 43% | 1012.9 hPa | 0 mm | - | 521 W/m² | - |
| 1778171444 | 11.67° C | 44% | 1012.9 hPa | 0 mm | - | 655 W/m² | - |
| 1778171139 | 11.67° C | 43% | 1012.9 hPa | 0 mm | - | 810 W/m² | - |
| 1778170836 | 11.67° C | 46% | 1012.9 hPa | 0 mm | - | 788 W/m² | - |
| 1778170532 | 11.67° C | 45% | 1012.8 hPa | 0 mm | - | 632 W/m² | - |
| 1778170229 | 11.11° C | 46% | 1013.1 hPa | 0 mm | - | 720 W/m² | - |
| 1778169925 | 11.11° C | 45% | 1012.7 hPa | 0 mm | - | 759 W/m² | - |
| 1778169622 | 12.22° C | 46% | 1013.2 hPa | 0 mm | - | 282 W/m² | - |
| 1778169317 | 10.56° C | 48% | 1013 hPa | 0 mm | - | 845 W/m² | - |
* Rain latest hour (hover to see other rain measurements)
** Current wind speed in m/s (hover to see current wind gust speed)